Accueil
METAR-TAF:

METAR-TAF

Aéroports :

Plate-forme pétrolière

Goeree Le, Pays-Bas

latitude: 51-55-33N, longitude: 3-40-12E, altitude: 19 m

Observation

Le bulletin a été fait il y a 35 minutes, à 14:55 UTC
Vent 22 kt de nord/nord-est
Température 16°C
Humidité 68%
Pression 1014 hPa
Visibilité 10 km ou plus

METAR: EHSC 241455Z AUTO 03022KT 9999 ///////// 16/10 Q1014 W18/H15

Heure: 17:30 (15:30 UTC)


TAF: absent

Observations et prévisions météorologiques de plus de 4000 aéroports (messages METAR et TAF).

Les stations disponibles sont représentées par des disques jaunes et rouges sur la carte.

Passer la souris dessus pour voir le nom de la station.

Cliquer dessus pour voir les observations et prévisions météorologiques.

Pour changer de carte: cliquez sur les boutons verts avec une croix noire pour zoomer, sur le bouton vert avec un tiret pour effectuer un zoom arrière, ou sur les flèches vertes pour les cartes adjacentes.


METAR-TAF: